| time (UTC) | temp F | wind direction | speed MPH | gust MPH | rain 1hr in | rain 24hr in | rain mn in | humidity % | barometer mb |
| 20260831133053 | 50 | 233 | 19.0 | 34.0 | 0.00 | 0.21 | 0.00 | 73 | 1011.3 |
| 20260831132049 | 49 | 231 | 16.0 | 27.0 | 0.00 | 0.21 | 0.00 | 73 | 1011.2 |
| 20260831131045 | 49 | 225 | 16.0 | 19.0 | 0.00 | 0.21 | 0.00 | 75 | 1011.1 |
| 20260831130041 | 49 | 225 | 21.0 | 25.0 | 0.00 | 0.21 | 0.00 | 82 | 1010.9 |
| 20260831125058 | 49 | 225 | 16.0 | 25.0 | 0.00 | 0.21 | 0.00 | 84 | 1010.8 |
| 20260831124036 | 49 | 231 | 18.0 | 29.0 | 0.01 | 0.21 | 0.00 | 87 | 1010.7 |
| 20260831123033 | 49 | 225 | 17.0 | 23.0 | 0.04 | 0.21 | 0.00 | 88 | 1010.7 |
| 20260831122030 | 49 | 210 | 17.0 | 26.0 | 0.04 | 0.21 | 0.00 | 89 | 1010.8 |
| 20260831121024 | 49 | 231 | 14.0 | 21.0 | 0.04 | 0.21 | 0.00 | 89 | 1010.6 |
| 20260831120021 | 50 | 228 | 11.0 | 16.0 | 0.04 | 0.21 | 0.00 | 88 | 1010.5 |
| 20260831115019 | 50 | 230 | 12.0 | 17.0 | 0.04 | 0.21 | 0.21 | 88 | 1010.4 |
| 20260831114115 | 50 | 242 | 13.0 | 21.0 | 0.02 | 0.20 | 0.20 | 88 | 1010.4 |
| 20260831113112 | 50 | 242 | 11.0 | 18.0 | 0.00 | 0.18 | 0.18 | 88 | 1010.3 |
| 20260831112127 | 50 | 217 | 12.0 | 17.0 | 0.00 | 0.18 | 0.18 | 87 | 1010.3 |
| 20260831111104 | 50 | 208 | 10.0 | 15.0 | 0.00 | 0.18 | 0.18 | 87 | 1010.4 |
| 20260831105057 | 50 | 225 | 12.0 | 17.0 | 0.00 | 0.18 | 0.18 | 87 | 1010.3 |
| 20260831104054 | 51 | 229 | 12.0 | 17.0 | 0.00 | 0.18 | 0.18 | 87 | 1010.3 |
| 20260831103135 | 50 | 221 | 8.0 | 14.0 | 0.01 | 0.18 | 0.18 | 87 | 1010.2 |
| 20260831102049 | 50 | 228 | 13.0 | 22.0 | 0.02 | 0.18 | 0.18 | 86 | 1010.4 |
| 20260831101044 | 50 | 194 | 12.0 | 19.0 | 0.05 | 0.18 | 0.18 | 85 | 1010.4 |
| 20260831100042 | 50 | 241 | 11.0 | 17.0 | 0.05 | 0.18 | 0.18 | 84 | 1010.2 |
| 20260831095037 | 50 | 223 | 9.0 | 13.0 | 0.05 | 0.18 | 0.18 | 83 | 1010.1 |
| 20260831094033 | 50 | 219 | 13.0 | 19.0 | 0.05 | 0.18 | 0.18 | 82 | 1009.9 |
| 20260831093029 | 50 | 203 | 20.0 | 27.0 | 0.04 | 0.17 | 0.17 | 80 | 1009.5 |
| 20260831092026 | 51 | 224 | 14.0 | 22.0 | 0.02 | 0.15 | 0.15 | 80 | 1009.4 |
| 20260831091022 | 51 | 244 | 12.0 | 19.0 | 0.00 | 0.13 | 0.13 | 80 | 1009.4 |
| 20260831090040 | 51 | 226 | 14.0 | 19.0 | 0.00 | 0.13 | 0.13 | 80 | 1009.4 |
| 20260831085137 | 51 | 238 | 14.0 | 20.0 | 0.00 | 0.13 | 0.13 | 80 | 1009.3 |
| 20260831084112 | 51 | 220 | 14.0 | 22.0 | 0.00 | 0.13 | 0.13 | 80 | 1009.2 |
| 20260831083109 | 51 | 215 | 13.0 | 19.0 | 0.00 | 0.13 | 0.13 | 80 | 1009.1 |
| 20260831082107 | 51 | 220 | 14.0 | 21.0 | 0.00 | 0.13 | 0.13 | 81 | 1008.9 |
| 20260831081101 | 51 | 230 | 12.0 | 19.0 | 0.00 | 0.13 | 0.13 | 82 | 1008.9 |
| 20260831080059 | 51 | 225 | 13.0 | 22.0 | 0.00 | 0.13 | 0.13 | 83 | 1008.8 |
| 20260831075117 | 51 | 225 | 12.0 | 18.0 | 0.00 | 0.13 | 0.13 | 84 | 1008.7 |
| 20260831074052 | 51 | 240 | 10.0 | 15.0 | 0.00 | 0.13 | 0.13 | 84 | 1008.8 |
| 20260831073048 | 51 | 232 | 11.0 | 21.0 | 0.00 | 0.13 | 0.13 | 83 | 1008.6 |
| 20260831072044 | 51 | 220 | 10.0 | 15.0 | 0.00 | 0.13 | 0.13 | 82 | 1008.6 |
| 20260831071043 | 51 | 216 | 14.0 | 21.0 | 0.00 | 0.13 | 0.13 | 81 | 1008.5 |
| 20260831070039 | 51 | 218 | 11.0 | 16.0 | 0.00 | 0.13 | 0.13 | 81 | 1008.2 |
| 20260831065034 | 51 | 230 | 12.0 | 18.0 | 0.00 | 0.13 | 0.13 | 81 | 1008.3 |
| 20260831064052 | 51 | 234 | 16.0 | 24.0 | 0.00 | 0.14 | 0.13 | 81 | 1008.3 |
| 20260831063027 | 51 | 224 | 14.0 | 22.0 | 0.00 | 0.14 | 0.13 | 81 | 1008.4 |
| 20260831062023 | 51 | 226 | 16.0 | 26.0 | 0.00 | 0.14 | 0.13 | 81 | 1008.3 |
| 20260831061042 | 52 | 238 | 16.0 | 24.0 | 0.00 | 0.14 | 0.13 | 81 | 1008.1 |
| 20260831060016 | 52 | 215 | 18.0 | 28.0 | 0.00 | 0.14 | 0.13 | 80 | 1008.0 |
| 20260831055114 | 52 | 197 | 19.0 | 30.0 | 0.00 | 0.14 | 0.13 | 80 | 1007.8 |
| 20260831054109 | 52 | 228 | 14.0 | 24.0 | 0.00 | 0.14 | 0.13 | 80 | 1007.6 |
| 20260831053108 | 53 | 218 | 20.0 | 29.0 | 0.00 | 0.14 | 0.13 | 81 | 1007.7 |
| 20260831052102 | 53 | 210 | 22.0 | 32.0 | 0.00 | 0.14 | 0.13 | 83 | 1007.7 |
| 20260831051059 | 53 | 234 | 16.0 | 27.0 | 0.01 | 0.14 | 0.13 | 84 | 1007.7 |
| 20260831050058 | 53 | 207 | 18.0 | 24.0 | 0.01 | 0.14 | 0.13 | 84 | 1007.6 |
| 20260831045052 | 54 | 190 | 19.0 | 24.0 | 0.01 | 0.14 | 0.13 | 83 | 1007.6 |
| 20260831044048 | 54 | 208 | 17.0 | 23.0 | 0.01 | 0.14 | 0.13 | 81 | 1007.7 |
| 20260831043045 | 54 | 252 | 16.0 | 23.0 | 0.01 | 0.19 | 0.13 | 80 | 1007.4 |
| 20260831042103 | 55 | 215 | 15.0 | 28.0 | 0.01 | 0.19 | 0.13 | 77 | 1007.3 |
| 20260831041058 | 56 | 240 | 13.0 | 21.0 | 0.01 | 0.19 | 0.12 | 76 | 1007.2 |
| 20260831040034 | 55 | 228 | 14.0 | 21.0 | 0.01 | 0.19 | 0.12 | 76 | 1007.2 |
| 20260831035051 | 56 | 242 | 16.0 | 26.0 | 0.01 | 0.19 | 0.12 | 78 | 1007.4 |
| 20260831034027 | 56 | 214 | 20.0 | 30.0 | 0.01 | 0.19 | 0.12 | 79 | 1007.4 |
| 20260831033024 | 55 | 224 | 18.0 | 27.0 | 0.01 | 0.19 | 0.12 | 77 | 1007.3 |
| 20260831032021 | 55 | 229 | 14.0 | 26.0 | 0.01 | 0.19 | 0.12 | 75 | 1007.0 |
| 20260831031019 | 56 | 228 | 14.0 | 25.0 | 0.00 | 0.18 | 0.11 | 75 | 1006.7 |
| 20260831030113 | 57 | 259 | 13.0 | 21.0 | 0.00 | 0.18 | 0.11 | 75 | 1006.9 |
| 20260831025131 | 56 | 235 | 11.0 | 20.0 | 0.00 | 0.18 | 0.11 | 75 | 1006.9 |
| 20260831024108 | 56 | 228 | 17.0 | 26.0 | 0.00 | 0.18 | 0.11 | 74 | 1006.9 |
| 20260831023104 | 56 | 242 | 17.0 | 26.0 | 0.00 | 0.18 | 0.11 | 73 | 1006.8 |
| 20260831022100 | 58 | 244 | 15.0 | 25.0 | 0.00 | 0.18 | 0.11 | 73 | 1006.8 |
| 20260831021117 | 59 | 233 | 12.0 | 20.0 | 0.00 | 0.18 | 0.11 | 72 | 1006.8 |
| 20260831020052 | 60 | 234 | 13.0 | 27.0 | 0.00 | 0.18 | 0.11 | 75 | 1007.0 |
| 20260831015049 | 57 | 255 | 11.0 | 27.0 | 0.00 | 0.18 | 0.11 | 76 | 1006.8 |
| 20260831014127 | 57 | 243 | 10.0 | 18.0 | 0.00 | 0.18 | 0.11 | 74 | 1007.0 |
| 20260831013043 | 57 | 240 | 13.0 | 23.0 | 0.00 | 0.18 | 0.11 | 72 | 1007.0 |
| 20260831012039 | 58 | 213 | 13.0 | 27.0 | 0.00 | 0.18 | 0.11 | 73 | 1007.1 |
| 20260831011035 | 58 | 249 | 15.0 | 26.0 | 0.00 | 0.18 | 0.11 | 74 | 1007.1 |
| 20260831010032 | 57 | 247 | 14.0 | 26.0 | 0.00 | 0.18 | 0.11 | 73 | 1007.3 |
| 20260831005029 | 58 | 237 | 15.0 | 22.0 | 0.00 | 0.18 | 0.11 | 72 | 1007.4 |
| 20260831004027 | 59 | 249 | 13.0 | 26.0 | 0.00 | 0.18 | 0.11 | 73 | 1007.6 |
| 20260831003021 | 59 | 245 | 14.0 | 23.0 | 0.00 | 0.18 | 0.11 | 75 | 1007.7 |
| 20260831002018 | 58 | 270 | 13.0 | 22.0 | 0.01 | 0.19 | 0.11 | 73 | 1007.9 |
| 20260831001158 | 59 | 267 | 15.0 | 21.0 | 0.01 | 0.19 | 0.11 | 75 | 1007.9 |
| 20260831000111 | 59 | 225 | 8.0 | 20.0 | 0.01 | 0.19 | 0.11 | 81 | 1008.1 |
| 20260830235107 | 59 | 278 | 12.0 | 23.0 | 0.01 | 0.19 | 0.11 | 81 | 1008.0 |
| 20260830234107 | 57 | 238 | 11.0 | 18.0 | 0.01 | 0.19 | 0.11 | 80 | 1008.1 |
| 20260830233103 | 56 | 230 | 13.0 | 24.0 | 0.01 | 0.19 | 0.11 | 76 | 1008.0 |
| 20260830232058 | 57 | 215 | 13.0 | 21.0 | 0.00 | 0.18 | 0.09 | 77 | 1008.0 |
| 20260830231053 | 58 | 242 | 15.0 | 21.0 | 0.02 | 0.18 | 0.09 | 79 | 1008.1 |
| 20260830230051 | 58 | 222 | 11.0 | 21.0 | 0.02 | 0.18 | 0.09 | 81 | 1008.3 |
| 20260830225108 | 57 | 225 | 10.0 | 13.0 | 0.02 | 0.18 | 0.09 | 82 | 1008.3 |
| 20260830224044 | 56 | 231 | 10.0 | 17.0 | 0.02 | 0.18 | 0.09 | 82 | 1008.4 |
| 20260830223040 | 55 | 239 | 12.0 | 23.0 | 0.02 | 0.18 | 0.09 | 80 | 1008.4 |
| 20260830222117 | 55 | 225 | 15.0 | 25.0 | 0.02 | 0.18 | 0.09 | 76 | 1008.4 |
| 20260830221034 | 57 | 225 | 14.0 | 25.0 | 0.00 | 0.15 | 0.07 | 79 | 1008.3 |
| 20260830220032 | 56 | 237 | 11.0 | 20.0 | 0.00 | 0.15 | 0.07 | 80 | 1008.1 |
| 20260830215028 | 56 | 235 | 12.0 | 17.0 | 0.00 | 0.15 | 0.07 | 83 | 1008.3 |
| 20260830214022 | 55 | 223 | 12.0 | 20.0 | 0.00 | 0.15 | 0.07 | 84 | 1008.4 |
| 20260830213019 | 55 | 215 | 11.0 | 18.0 | 0.00 | 0.15 | 0.07 | 86 | 1008.4 |
| 20260830212035 | 55 | 232 | 11.0 | 16.0 | 0.00 | 0.15 | 0.07 | 88 | 1008.4 |
| 20260830211112 | 55 | 229 | 12.0 | 17.0 | 0.00 | 0.15 | 0.07 | 89 | 1008.3 |
| 20260830210109 | 54 | 234 | 12.0 | 19.0 | 0.00 | 0.15 | 0.07 | 92 | 1008.4 |
| 20260830205106 | 54 | 229 | 11.0 | 24.0 | 0.04 | 0.15 | 0.07 | 92 | 1008.4 |
| 20260830204101 | 55 | 258 | 6.0 | 17.0 | 0.04 | 0.15 | 0.07 | 90 | 1008.4 |
| 20260830203143 | 53 | 240 | 6.0 | 11.0 | 0.04 | 0.15 | 0.07 | 91 | 1008.4 |
| 20260830202115 | 52 | 232 | 11.0 | 16.0 | 0.05 | 0.15 | 0.07 | 90 | 1008.6 |
| 20260830201052 | 52 | 241 | 11.0 | 19.0 | 0.05 | 0.15 | 0.07 | 90 | 1008.7 |
| 20260830200048 | 52 | 257 | 12.0 | 21.0 | 0.05 | 0.15 | 0.07 | 89 | 1008.6 |
| 20260830195046 | 52 | 227 | 8.0 | 17.0 | 0.01 | 0.12 | 0.04 | 88 | 1008.4 |
| 20260830194041 | 52 | 258 | 6.0 | 16.0 | 0.01 | 0.12 | 0.04 | 88 | 1008.3 |
| 20260830193039 | 52 | 241 | 7.0 | 15.0 | 0.01 | 0.12 | 0.04 | 88 | 1008.0 |
| 20260830192034 | 52 | 259 | 7.0 | 17.0 | 0.00 | 0.11 | 0.02 | 88 | 1008.0 |
| 20260830191031 | 52 | 261 | 6.0 | 11.0 | 0.01 | 0.11 | 0.02 | 88 | 1007.8 |
| 20260830190026 | 52 | 265 | 6.0 | 11.0 | 0.01 | 0.11 | 0.02 | 88 | 1007.7 |
| 20260830185023 | 51 | 231 | 8.0 | 15.0 | 0.01 | 0.11 | 0.02 | 87 | 1007.9 |
| 20260830184019 | 51 | 272 | 8.0 | 15.0 | 0.01 | 0.11 | 0.02 | 87 | 1008.1 |
| 20260830183018 | 51 | 230 | 10.0 | 16.0 | 0.01 | 0.11 | 0.02 | 86 | 1008.1 |
| 20260830182115 | 51 | 239 | 8.0 | 14.0 | 0.01 | 0.11 | 0.02 | 87 | 1007.9 |
| 20260830181109 | 51 | 235 | 9.0 | 14.0 | 0.00 | 0.09 | 0.01 | 87 | 1007.8 |
| 20260830180106 | 51 | 240 | 9.0 | 17.0 | 0.00 | 0.09 | 0.01 | 87 | 1007.9 |
| 20260830175102 | 51 | 250 | 8.0 | 17.0 | 0.00 | 0.09 | 0.01 | 87 | 1007.8 |
| 20260830174059 | 51 | 221 | 8.0 | 12.0 | 0.00 | 0.09 | 0.01 | 87 | 1007.9 |
| 20260830173117 | 51 | 225 | 8.0 | 15.0 | 0.00 | 0.09 | 0.01 | 88 | 1007.8 |
| 20260830172053 | 51 | 233 | 9.0 | 14.0 | 0.00 | 0.09 | 0.01 | 88 | 1007.7 |
| 20260830171049 | 51 | 231 | 8.0 | 13.0 | 0.00 | 0.09 | 0.01 | 88 | 1007.7 |
| 20260830170107 | 51 | 244 | 10.0 | 16.0 | 0.00 | 0.09 | 0.01 | 88 | 1007.6 |
| 20260830165101 | 51 | 243 | 8.0 | 15.0 | 0.00 | 0.09 | 0.01 | 87 | 1007.5 |
| 20260830164039 | 51 | 237 | 9.0 | 15.0 | 0.00 | 0.09 | 0.01 | 87 | 1007.3 |
| 20260830163035 | 51 | 231 | 7.0 | 13.0 | 0.00 | 0.09 | 0.01 | 87 | 1007.3 |
| 20260830162031 | 51 | 236 | 6.0 | 11.0 | 0.00 | 0.09 | 0.01 | 86 | 1007.3 |
| 20260830161027 | 51 | 224 | 6.0 | 10.0 | 0.00 | 0.09 | 0.01 | 86 | 1007.2 |
| 20260830160026 | 51 | 225 | 8.0 | 14.0 | 0.00 | 0.09 | 0.01 | 86 | 1007.3 |
| 20260830155021 | 51 | 237 | 9.0 | 15.0 | 0.01 | 0.09 | 0.01 | 85 | 1007.4 |
| 20260830154017 | 51 | 225 | 11.0 | 17.0 | 0.01 | 0.09 | 0.01 | 85 | 1007.6 |
| 20260830153113 | 51 | 222 | 8.0 | 13.0 | 0.01 | 0.09 | 0.01 | 85 | 1007.6 |
| 20260830152135 | 51 | 213 | 10.0 | 16.0 | 0.01 | 0.09 | 0.01 | 86 | 1007.6 |
| 20260830151149 | 50 | 229 | 8.0 | 14.0 | 0.01 | 0.09 | 0.01 | 86 | 1007.7 |
| 20260830145059 | 50 | 197 | 10.0 | 15.0 | 0.00 | 0.08 | 0.00 | 87 | 1007.8 |
| 20260830144058 | 51 | 216 | 11.0 | 15.0 | 0.00 | 0.08 | 0.00 | 88 | 1007.9 |
| 20260830143055 | 51 | 241 | 10.0 | 16.0 | 0.00 | 0.08 | 0.00 | 89 | 1008.1 |
| 20260830142050 | 51 | 225 | 9.0 | 14.0 | 0.00 | 0.08 | 0.00 | 90 | 1008.1 |
| 20260830141048 | 51 | 246 | 10.0 | 17.0 | 0.00 | 0.08 | 0.00 | 90 | 1008.1 |
| 20260830140104 | 51 | 236 | 9.0 | 17.0 | 0.00 | 0.08 | 0.00 | 90 | 1008.1 |
| 20260830135040 | 51 | 226 | 9.0 | 15.0 | 0.00 | 0.08 | 0.00 | 90 | 1008.0 |
| 20260830134055 | 51 | 204 | 11.0 | 15.0 | 0.00 | 0.08 | 0.00 | 90 | 1008.0 |